Location: Grand Rapids
(42.9630°N, 85.6680°W)
Time: 02:15:07
(UTC-04:00)

A-11 Canister half - Pass Details

Date: 02 June 2024
Orbit: 1524 x 1684 km, 47.3° (Epoch: 21 June)

Event Time Altitude Azimuth Distance (km) Brightness Sun altitude
Rises 01:14:02 0° 293° (WNW) 4,715 12.0 -24.5°
Reaches altitude 10° 01:17:04 10° 293° (WNW) 3,746 11.4 -24.6°
Maximum altitude 01:26:35 81° 208° (SSW) 1,612 8.9 -24.7°
Enters shadow 01:35:51 12° 123° (ESE) 3,680 10.7 -24.8°
Drops below altitude 10° 01:36:26 10° 123° (ESE) 3,863 - -24.8°
Sets 01:39:35 0° 122° (ESE) 4,867 - -24.8°
